Wind_Speed
10 13 13 12 10 7 6 3 2 5 7 11 15 20 23 23 30 39 41 41 42 46 46 47 46 44 42 36 33 33 31 23 23 32 25 28 19 21 25 22 24 21 19
9 14 14 12 8 5 3 1 6 12 9 6 12 14 14 18 21 25 38 43 44 45 47 52 51 47 47 45 38 31 37 36 33 26 33 32 27 16 35 30 24 24 24
5 8 11 12 10 7 18 20 20 23 19 19 17 15 17 19 20 14 16 27 46 48 44 49 55 55 51 52 49 41 40 44 44 39 36 35 35 30 32 30 24 27 30
12 10 17 25 20 20 23 20 22 21 22 24 22 19 26 24 25 26 33 33 26 34 43 45 42 51 58 59 57 56 55 53 53 49 46 40 39 35 35 33 31 28 31
19 21 21 26 31 24 17 18 17 21 21 25 29 33 30 31 26 27 31 32 33 29 29 35 42 43 40 47 54 57 60 58 55 52 50 50 48 45 43 38 37 36 35
26 28 26 30 31 34 37 35 33 33 33 35 35 40 44 44 31 35 25 27 29 27 24 25 30 35 40 48 53 54 55 56 57 59 58 59 58 53 49 46 43 39 37
26 30 35 37 33 39 39 43 47 48 48 48 50 52 52 49 49 46 39 33 34 37 41 42 39 36 37 41 44 48 59 64 65 63 63 59 56 57 54 54 51 48 43
35 34 37 37 44 44 48 50 50 51 52 52 56 55 55 51 50 51 50 51 51 51 49 52 52 47 46 50 50 52 49 61 68 64 68 69 68 64 61 60 58 58 53
38 43 48 41 43 43 47 43 42 42 44 44 47 51 55 57 58 58 60 60 61 62 59 54 53 54 57 51 57 58 58 60 62 69 70 74 76 74 72 70 67 65 62
45 48 52 54 49 52 46 49 56 57 60 62 65 66 66 69 71 71 73 72 72 67 64 66 64 59 59 56 57 61 64 63 66 68 69 76 80 82 78 78 76 72 69
50 54 59 60 57 57 59 59 60 61 65 68 73 75 75 77 79 80 84 81 78 74 75 72 68 69 68 65 63 64 67 68 68 71 74 76 78 83 82 81 83 80 76
52 57 57 62 61 61 62 64 68 72 75 76 78 82 83 84 85 87 91 86 78 76 75 75 76 75 74 75 72 69 71 72 70 71 78 79 81 78 87 79 81 84 82
49 51 53 55 57 62 64 71 74 75 77 82 86 85 91 93 92 98 97 93 87 84 81 80 81 79 77 75 72 71 71 73 76 76 80 84 88 90 100 88 90 83 86
58 58 65 74 75 72 72 80 79 82 86 91 93 96 99 99 100 103 104 93 89 85 80 76 77 75 72 68 67 68 70 73 76 79 83 85 87 91 91 101 102 95 89
67 69 71 74 77 80 82 83 87 88 91 95 96 102 103 107 103 105 86 89 84 79 77 77 73 71 70 69 66 64 66 67 70 76 80 85 87 87 90 94 94 102 92
73 73 73 74 76 81 85 89 95 98 100 100 96 97 96 93 96 89 87 83 83 82 81 80 78 74 71 68 67 65 63 65 65 67 70 75 81 82 84 89 90 95 92
65 70 73 78 87 93 98 101 96 94 98 99 101 99 98 86 81 83 84 85 88 90 90 89 84 80 73 67 65 66 65 64 65 66 67 69 70 74 75 79 86 88 90
64 69 78 81 83 89 90 93 99 99 94 82 75 79 82 85 87 88 91 94 95 94 89 86 83 79 75 70 65 65 66 66 66 66 65 65 66 68 71 73 75 80 86
68 71 72 73 76 79 83 85 83 84 80 79 82 83 85 88 92 95 98 94 85 78 76 74 70 72 74 72 69 66 66 67 67 66 65 63 63 64 65 67 69 72 75
74 75 75 77 78 74 72 73 75 77 79 82 87 90 94 97 98 94 85 79 72 65 62 62 59 58 63 69 71 69 67 67 70 68 67 66 64 63 63 64 66 69 71
70 67 65 64 68 70 72 73 76 80 84 88 91 95 98 93 83 79 71 66 60 55 51 48 48 50 51 54 63 69 70 69 68 69 70 69 69 66 65 64 65 66 68
61 63 66 67 70 71 73 77 81 84 88 92 95 91 83 78 71 65 61 55 51 48 41 41 40 41 42 46 50 57 67 71 69 67 69 71 71 72 70 68 67 68 67
64 66 68 70 73 77 79 82 85 88 92 89 83 77 70 65 61 56 53 49 45 39 34 33 31 29 31 36 40 44 49 58 65 67 67 69 72 73 73 73 72 71 70
66 69 72 75 77 79 81 85 89 88 80 76 71 67 62 58 55 49 45 40 36 30 27 24 23 23 23 24 27 32 36 43 49 57 64 67 69 71 72 73 74 75 75
70 72 75 77 79 81 85 90 82 78 71 68 63 62 56 50 47 40 37 33 27 23 19 19 20 19 18 17 18 20 24 30 35 40 46 55 60 63 66 69 71 73 75
73 76 78 80 83 87 88 81 71 68 66 60 55 55 48 44 40 33 30 26 21 17 17 16 16 17 15 15 14 14 15 16 21 26 31 36 43 51 56 59 63 66 70
Wind_Direction
281 251 236 236 250 254 212 161 228 273 280 291 291 280 272 272 261 251 248 245 239 238 242 245 244 243 246 245 253 260 266 260 264 272 280 284 284 281 290 286 286 283 286
291 261 232 219 185 168 114 9 350 337 304 306 317 322 307 294 278 259 240 238 241 242 242 244 243 243 244 246 248 253 257 258 272 263 260 274 278 282 272 278 276 281 283
284 272 227 212 195 267 294 282 291 301 309 283 290 308 313 306 309 285 261 247 240 238 242 248 246 245 246 244 246 249 257 255 264 266 261 254 255 254 257 270 264 264 278
258 297 257 254 263 279 288 281 285 294 284 275 281 284 300 294 301 284 302 301 256 246 244 248 248 248 248 247 246 247 250 256 262 264 260 258 253 256 264 268 268 258 257
271 294 274 271 266 273 281 277 280 280 275 269 275 274 290 300 281 275 281 287 272 254 251 253 253 250 249 250 251 251 252 253 256 258 257 259 256 261 261 264 265 260 257
273 277 269 272 271 266 270 274 279 281 277 272 278 288 290 293 291 298 285 273 265 259 255 264 263 268 266 259 253 252 252 251 249 250 251 256 257 260 256 259 259 258 257
275 282 271 264 268 267 269 280 279 281 281 283 282 283 288 291 291 290 286 275 270 257 263 260 282 265 263 264 259 257 246 246 248 248 250 251 250 248 248 250 255 255 250
286 278 272 271 261 263 263 267 272 277 278 283 286 288 290 286 281 285 286 285 283 278 274 262 258 271 271 261 258 256 259 249 241 248 253 249 251 252 243 245 249 250 250
282 281 286 281 283 281 271 276 277 280 282 287 292 293 290 291 293 293 293 292 288 287 286 278 272 276 272 266 260 260 264 256 250 246 240 250 252 249 247 246 246 245 248
280 280 278 287 289 285 289 285 284 285 288 290 291 292 292 294 296 296 297 293 292 290 286 285 281 279 280 277 274 265 258 256 259 251 247 244 246 249 246 245 245 244 246
268 272 279 284 287 291 294 293 292 290 287 289 289 292 294 293 296 297 301 298 296 294 292 288 288 285 284 284 282 271 261 258 256 251 249 245 240 239 245 246 245 244 247
278 276 276 274 278 284 287 288 287 288 289 289 290 292 294 294 296 299 303 300 296 296 294 292 291 287 286 284 282 272 266 259 255 251 248 247 244 241 235 235 242 242 244
263 267 266 269 270 274 277 280 282 285 287 287 289 291 295 297 299 300 301 300 296 294 292 291 291 288 285 281 276 270 263 258 255 252 247 245 245 243 241 240 239 239 240
258 269 270 271 273 277 277 278 283 287 287 290 290 292 294 295 295 298 297 294 292 289 286 284 283 281 279 274 270 266 260 257 252 251 249 247 244 245 243 240 236 236 240
259 266 269 270 275 277 280 280 282 286 288 291 292 292 294 297 296 297 292 291 289 288 286 285 282 279 277 274 270 265 262 257 255 252 250 248 247 244 244 244 242 240 234
264 272 275 277 278 279 280 281 286 288 289 290 289 292 294 292 293 291 291 292 292 292 290 287 285 281 278 274 269 264 259 257 254 253 252 251 249 248 245 243 242 242 242
277 277 278 279 279 279 278 281 288 286 288 291 291 291 292 289 289 290 290 291 292 292 291 290 288 284 280 274 267 262 257 252 251 251 251 251 250 246 244 244 242 241 242
289 284 280 283 284 284 286 286 287 290 290 288 288 291 292 293 293 295 295 294 293 290 287 284 281 278 275 271 266 259 254 251 249 247 247 249 249 248 246 244 243 241 241
289 290 290 287 287 289 289 289 291 291 293 295 296 297 296 296 296 296 296 295 293 290 287 282 276 271 269 266 262 257 253 248 247 247 245 245 246 245 246 243 242 242 241
291 289 288 288 287 290 293 295 297 297 298 299 299 300 299 299 299 299 298 297 297 293 288 285 280 273 265 260 259 257 252 249 247 244 244 245 244 244 243 244 243 242 242
288 290 292 293 294 295 296 298 298 299 300 300 300 299 299 301 300 300 298 298 298 296 294 287 282 276 269 262 257 256 254 251 247 244 243 243 243 243 243 243 245 244 242
293 294 296 295 296 297 298 299 301 301 300 301 300 301 302 302 301 301 299 299 299 298 296 289 284 281 275 267 259 254 252 252 251 247 243 241 241 243 243 243 243 244 244
295 295 295 296 298 299 300 302 302 303 303 302 302 303 303 303 302 301 298 299 299 297 295 293 292 286 278 271 267 262 256 252 250 249 246 242 241 240 241 243 245 246 244
293 294 297 298 299 301 302 303 304 305 304 304 305 306 306 304 301 301 300 296 296 293 294 295 296 296 290 284 275 266 261 257 253 249 245 242 242 241 241 243 244 246 248
296 298 299 300 302 302 304 306 305 305 305 306 306 307 307 303 302 302 297 295 291 287 292 292 294 301 299 296 291 281 269 262 259 254 249 245 244 244 243 244 246 248 248
298 299 300 302 302 304 305 305 305 306 307 307 310 307 308 304 305 303 297 290 279 274 274 286 294 297 298 302 297 291 286 277 268 260 255 250 247 246 246 247 248 249 250
Height
10926 10927 10928 10929 10930 10932 10930 10930 10931 10931 10930 10930 10929 10929 10930 10929 10927 10928 10930 10932 10934 10937 10939 10941 10943 10944 10944 10946 10948 10949 10950 10950 10952 10951 10951 10949 10950 10951 10949 10948 10946 10944 10943
10926 10925 10925 10927 10928 10930 10930 10929 10928 10927 10927 10926 10925 10924 10924 10923 10921 10918 10918 10920 10923 10926 10928 10931 10932 10934 10935 10938 10939 10941 10941 10942 10943 10943 10946 10946 10948 10936 10940 10943 10942 10939 10938
10922 10923 10924 10924 10924 10925 10926 10926 10924 10923 10922 10922 10921 10920 10919 10919 10917 10914 10914 10913 10914 10916 10918 10919 10921 10922 10924 10927 10929 10930 10930 10931 10931 10934 10936 10938 10939 10941 10940 10937 10935 10935 10935
10919 10920 10921 10919 10919 10920 10919 10918 10918 10918 10917 10917 10916 10914 10914 10913 10913 10912 10909 10909 10907 10907 10908 10909 10909 10911 10912 10914 10916 10917 10919 10919 10920 10922 10925 10927 10929 10929 10929 10928 10929 10928 10928
10914 10915 10915 10914 10913 10913 10912 10912 10912 10912 10911 10910 10910 10909 10906 10905 10904 10904 10903 10901 10899 10898 10898 10899 10900 10900 10900 10900 10901 10903 10904 10906 10908 10910 10912 10914 10917 10917 10918 10918 10918 10920 10920
10908 10908 10909 10908 10907 10906 10906 10906 10905 10904 10904 10903 10902 10900 10899 10898 10896 10896 10893 10892 10892 10891 10891 10890 10890 10889 10888 10887 10887 10888 10889 10891 10893 10896 10897 10901 10903 10904 10906 10907 10908 10909 10912
10901 10900 10899 10900 10900 10899 10898 10897 10895 10894 10891 10890 10888 10887 10886 10886 10884 10883 10883 10883 10883 10881 10879 10877 10877 10877 10876 10874 10873 10871 10873 10876 10878 10880 10882 10884 10887 10890 10892 10892 10895 10898 10901
10893 10890 10888 10887 10888 10887 10886 10884 10883 10881 10878 10877 10874 10872 10870 10870 10869 10867 10867 10867 10867 10865 10863 10863 10861 10861 10860 10857 10856 10856 10856 10857 10859 10864 10863 10867 10869 10873 10875 10877 10880 10884 10887
10880 10879 10878 10876 10875 10873 10872 10870 10869 10866 10863 10860 10859 10856 10854 10852 10850 10849 10847 10844 10843 10844 10842 10842 10842 10840 10838 10837 10837 10836 10836 10837 10840 10841 10844 10845 10848 10851 10856 10859 10863 10867 10870
10868 10865 10863 10862 10860 10858 10857 10855 10852 10848 10845 10841 10838 10837 10835 10832 10830 10827 10825 10823 10821 10820 10819 10817 10819 10816 10813 10812 10813 10812 10813 10815 10816 10818 10819 10821 10825 10828 10834 10837 10844 10848 10853
10853 10851 10849 10847 10845 10842 10841 10839 10836 10832 10830 10826 10821 10818 10815 10812 10809 10804 10800 10798 10795 10791 10790 10788 10787 10783 10783 10785 10785 10784 10785 10787 10789 10791 10793 10797 10800 10808 10810 10815 10822 10828 10834
10841 10837 10835 10833 10831 10828 10826 10823 10818 10814 10811 10806 10802 10797 10792 10788 10785 10779 10775 10771 10767 10764 10762 10760 10759 10757 10754 10754 10755 10754 10754 10756 10758 10761 10764 10769 10774 10780 10788 10793 10797 10805 10811
10827 10827 10824 10821 10816 10814 10811 10806 10802 10798 10793 10787 10782 10776 10771 10766 10761 10757 10752 10747 10743 10741 10736 10731 10729 10727 10724 10723 10724 10723 10723 10725 10727 10729 10733 10738 10744 10751 10761 10767 10773 10782 10787
10813 10812 10809 10805 10802 10796 10791 10785 10782 10776 10771 10766 10760 10755 10749 10745 10740 10735 10728 10722 10719 10717 10712 10708 10703 10698 10695 10694 10694 10694 10693 10694 10696 10699 10702 10705 10713 10721 10729 10735 10747 10759 10762
10799 10796 10792 10787 10781 10777 10772 10767 10763 10756 10751 10746 10740 10733 10724 10717 10710 10706 10697 10691 10686 10683 10679 10677 10676 10674 10670 10666 10667 10668 10666 10667 10669 10671 10674 10677 10683 10692 10699 10705 10714 10724 10737
10783 10778 10772 10767 10762 10756 10751 10747 10741 10733 10730 10723 10716 10706 10701 10695 10686 10677 10669 10662 10656 10651 10647 10645 10641 10641 10640 10638 10637 10640 10641 10641 10644 10645 10646 10651 10657 10664 10671 10679 10688 10696 10706
10764 10759 10752 10745 10741 10737 10732 10727 10721 10717 10706 10698 10690 10680 10673 10667 10661 10655 10646 10638 10629 10622 10616 10611 10607 10605 10605 10606 10608 10609 10613 10616 10619 10621 10625 10628 10633 10639 10646 10651 10660 10669 10678
10742 10738 10735 10731 10724 10717 10711 10704 10696 10688 10680 10675 10670 10659 10648 10638 10629 10622 10614 10605 10598 10589 10584 10578 10574 10572 10572 10575 10578 10582 10585 10590 10594 10599 10602 10605 10610 10615 10622 10629 10635 10644 10652
10727 10722 10715 10708 10701 10694 10687 10679 10670 10663 10655 10645 10635 10628 10621 10612 10602 10591 10581 10572 10562 10555 10546 10541 10542 10540 10540 10543 10548 10553 10559 10564 10569 10574 10579 10585 10590 10595 10600 10606 10612 10619 10627
10706 10701 10693 10687 10682 10674 10666 10657 10649 10640 10632 10622 10611 10601 10590 10579 10569 10559 10548 10539 10531 10525 10519 10512 10509 10509 10510 10513 10517 10524 10531 10537 10543 10551 10557 10563 10569 10576 10580 10585 10591 10598 10606
10687 10678 10672 10667 10659 10653 10646 10638 10629 10620 10610 10599 10588 10575 10564 10553 10542 10532 10523 10515 10509 10503 10498 10492 10486 10484 10485 10488 10491 10496 10504 10510 10518 10527 10535 10542 10549 10555 10560 10566 10570 10577 10584
10667 10661 10655 10648 10642 10635 10627 10618 10608 10597 10586 10574 10561 10551 10540 10528 10518 10510 10502 10497 10492 10486 10481 10475 10472 10469 10467 10467 10470 10474 10478 10485 10494 10504 10512 10519 10527 10533 10538 10545 10551 10556 10563
10651 10644 10638 10631 10624 10615 10606 10596 10585 10574 10562 10549 10537 10527 10517 10508 10498 10492 10485 10482 10477 10473 10468 10464 10461 10458 10456 10454 10454 10457 10460 10465 10471 10479 10489 10497 10503 10510 10518 10524 10530 10536 10543
10633 10627 10620 10612 10604 10595 10585 10574 10563 10552 10539 10527 10517 10507 10498 10491 10482 10477 10472 10468 10465 10461 10459 10456 10453 10450 10448 10445 10444 10444 10445 10448 10452 10457 10464 10472 10481 10490 10497 10504 10510 10516 10522
10614 10608 10601 10592 10583 10574 10565 10553 10540 10531 10519 10510 10500 10490 10482 10475 10468 10465 10460 10457 10455 10453 10452 10450 10447 10445 10442 10440 10439 10437 10437 10438 10439 10442 10447 10453 10461 10471 10479 10487 10491 10498 10503
10596 10589 10581 10573 10563 10554 10543 10532 10522 10512 10501 10493 10487 10475 10469 10461 10457 10454 10450 10448 10447 10447 10446 10446 10443 10441 10439 10437 10436 10434 10433 10433 10432 10433 10437 10442 10448 10455 10463 10470 10476 10482 10485